Zurück zum Katalog

OPS 8701

AktivMilitärGEO
NORAD 13086·PAYLOAD·🇺🇸 United States

Gestartet Mar 6, 1982 von Cape Canaveral Space Force Station

Loading…

TLE

AktuellSource: Space-Track

Epoche: Sep 14, 2026, 02:13 UTC

1 13086U 82019A   26257.09273016 -.00000021  00000-0  00000-0 0  9992
2 13086   9.1141 308.6632 0004871 300.4878 220.8952  0.98188184 26535

Verfolge OPS 8701 in Echtzeit mit AllMySat

Download on the App Store